This is the latest recevied weather packets stored in our database for station/object KX4O-13. If no packets are shown the sender has not sent any weather packets the latest 10 day(s).
| Time | Temp. | Humidity | Pressure | Rain* | Wind** | Luminosity | Snow |
|---|---|---|---|---|---|---|---|
| 1777648260 | 15.56° C | 48% | 1015.3 hPa | 0 mm | - | 738 W/m² | - |
| 1777647960 | 15° C | 48% | 1015.3 hPa | 0 mm | - | 721 W/m² | - |
| 1777647660 | 13.89° C | 51% | 1015.4 hPa | 0 mm | - | 636 W/m² | - |
| 1777647360 | 14.44° C | 47% | 1015.4 hPa | 0 mm | - | 701 W/m² | - |
| 1777647060 | 14.44° C | 50% | 1015.3 hPa | 0 mm | - | 664 W/m² | - |
| 1777646760 | 14.44° C | 47% | 1015.4 hPa | 0 mm | - | 686 W/m² | - |
| 1777646460 | 14.44° C | 50% | 1015.5 hPa | 0 mm | - | 682 W/m² | - |
| 1777646160 | 15° C | 49% | 1015.4 hPa | 0 mm | - | 684 W/m² | - |
| 1777645860 | 14.44° C | 53% | 1015.5 hPa | 0 mm | - | 687 W/m² | - |
| 1777645560 | 13.89° C | 50% | 1015.5 hPa | 0 mm | - | 642 W/m² | - |
| 1777645260 | 13.89° C | 53% | 1015.4 hPa | 0 mm | - | 640 W/m² | - |
| 1777644960 | 14.44° C | 50% | 1015.5 hPa | 0 mm | - | 613 W/m² | - |
| 1777644660 | 14.44° C | 50% | 1015.5 hPa | 0 mm | - | 608 W/m² | - |
| 1777644360 | 13.89° C | 54% | 1015.4 hPa | 0 mm | - | 594 W/m² | - |
| 1777644060 | 13.33° C | 52% | 1015.3 hPa | 0 mm | - | 585 W/m² | - |
| 1777643760 | 13.33° C | 55% | 1015.4 hPa | 0 mm | - | 570 W/m² | - |
| 1777643460 | 13.33° C | 51% | 1015.4 hPa | 0 mm | - | 555 W/m² | - |
| 1777643160 | 13.89° C | 53% | 1015.4 hPa | 0 mm | - | 531 W/m² | - |
| 1777642860 | 13.33° C | 54% | 1015.4 hPa | 0 mm | - | 510 W/m² | - |
| 1777642560 | 12.78° C | 59% | 1015.4 hPa | 0 mm | - | 478 W/m² | - |
| 1777642260 | 12.22° C | 57% | 1015.4 hPa | 0 mm | - | 438 W/m² | - |
| 1777641960 | 11.67° C | 53% | 1015.5 hPa | 0 mm | - | 413 W/m² | - |
| 1777641660 | 11.67° C | 53% | 1015.5 hPa | 0 mm | - | 406 W/m² | - |
| 1777641360 | 12.22° C | 57% | 1015.5 hPa | 0 mm | - | 399 W/m² | - |
| 1777641060 | 12.22° C | 56% | 1015.6 hPa | 0 mm | - | 264 W/m² | - |
* Rain latest hour (hover to see other rain measurements)
** Current wind speed in m/s (hover to see current wind gust speed)